OpenBCM V1.07b12 (Linux)

Packet Radio Mailbox

DB0FHN

[JN59NK Nuernberg]

 Login: GUEST





  
I6KZR  > KEPLER   04.05.03 20:37l 1520 Lines 40608 Bytes #999 (0) @ WW
BID : 859_I6KZR
Read: DB0FHN GUEST
Subj: Old Istantrak Keplerians #121
Path: DB0FHN<DB0ZWI<DB0HDF<DB0HOT<OK0PKL<OK0PCC<OK0NAG<OK0PPL<RZ6HXA<SP7MGD<
      IK6PYS<I6ZLO<IK6WID
Sent: 030501/1812Z @:IK6WID.#AP.IMAR.ITA.EU #:38296 [MONTE URANO]  FBB7.00i
From: I6KZR@IK6WID.#AP.IMAR.ITA.EU
To  : KEPLER@WW





What goes around comes around.
 Work like you don't need the money.
  Love like you've never been hurt.
   Dance like nobody's watching.
    Think Different!

Inviato da: I6KZR@IK6WID.#AP.IMAR.ITA.EU        

Satellite: AO-07
Catalog number: 07530
Epoch time:      103120.71951462
Element set:     183 
Inclination:      101.7449 deg
RA of node:       167.7991 deg
Eccentricity:    0.0012025
Arg of perigee:   301.3029 deg
Mean anomaly:      58.6866 deg
Mean motion:   12.53565312 rev/day
Decay rate:   -2.9000E-007 rev/day^2
Epoch rev:           30210
Checksum:              275

Satellite: GOES 2
Catalog number: 10061
Epoch time:      103110.05256413
Element set:     159 
Inclination:       14.1502 deg
RA of node:        12.9744 deg
Eccentricity:    0.0012144
Arg of perigee:   201.8149 deg
Mean anomaly:     158.0678 deg
Mean motion:    0.99401519 rev/day
Decay rate:   -3.3399E-006 rev/day^2
Epoch rev:            3943
Checksum:              267

Satellite: GOES 3
Catalog number: 10953
Epoch time:      103120.73313216
Element set:     6 
Inclination:       13.4439 deg
RA of node:        16.7010 deg
Eccentricity:    0.0006603
Arg of perigee:     5.5762 deg
Mean anomaly:     354.3768 deg
Mean motion:    1.00276302 rev/day
Decay rate:    9.9999E-009 rev/day^2
Epoch rev:            4421
Checksum:              270

Satellite: GOES 6
Catalog number: 14050
Epoch time:      103119.82453429
Element set:     447 
Inclination:       10.4873 deg
RA of node:        35.1412 deg
Eccentricity:    0.0005458
Arg of perigee:   359.4532 deg
Mean anomaly:       0.4628 deg
Mean motion:    1.00320489 rev/day
Decay rate:   -2.0999E-007 rev/day^2
Epoch rev:           13134
Checksum:              279

Satellite: AO-10
Catalog number: 14129
Epoch time:      103116.43626042
Element set:     931 
Inclination:       26.1009 deg
RA of node:       153.3817 deg
Eccentricity:    0.6000972
Arg of perigee:   347.0699 deg
Mean anomaly:       2.7223 deg
Mean motion:    2.05867525 rev/day
Decay rate:    1.4500E-006 rev/day^2
Epoch rev:           12144
Checksum:              346

Satellite: UO-11
Catalog number: 14781
Epoch time:      103121.36797337
Element set:     135 
Inclination:       98.1275 deg
RA of node:        95.9092 deg
Eccentricity:    0.0009588
Arg of perigee:   348.1120 deg
Mean anomaly:      11.9867 deg
Mean motion:   14.78214780 rev/day
Decay rate:    1.8160E-005 rev/day^2
Epoch rev:            2684
Checksum:              431

Satellite: NOAA-10
Catalog number: 16969
Epoch time:      103121.48416447
Element set:     755 
Inclination:       98.7361 deg
RA of node:       115.4884 deg
Eccentricity:    0.0011578
Arg of perigee:   235.8020 deg
Mean anomaly:     124.2063 deg
Mean motion:   14.27093992 rev/day
Decay rate:    1.7400E-006 rev/day^2
Epoch rev:           86416
Checksum:              317

Satellite: GOES 7
Catalog number: 17561
Epoch time:      103117.46239071
Element set:     941 
Inclination:        7.7303 deg
RA of node:        55.0987 deg
Eccentricity:    0.0004032
Arg of perigee:   285.4971 deg
Mean anomaly:     220.3343 deg
Mean motion:    1.00276239 rev/day
Decay rate:    3.4999E-007 rev/day^2
Epoch rev:            4242
Checksum:              293

Satellite: RS-10/11
Catalog number: 18129
Epoch time:      103120.94279541
Element set:     230 
Inclination:       82.9211 deg
RA of node:        93.7623 deg
Eccentricity:    0.0013176
Arg of perigee:    34.7405 deg
Mean anomaly:     325.4606 deg
Mean motion:   13.72708764 rev/day
Decay rate:    1.0300E-006 rev/day^2
Epoch rev:           79430
Checksum:              283

Satellite: EUTELSAT 1-F4 
Catalog number: 18351
Epoch time:      103120.88420223
Element set:     59 
Inclination:        7.3416 deg
RA of node:        58.2265 deg
Eccentricity:    0.0005891
Arg of perigee:   200.7212 deg
Mean anomaly:     159.1565 deg
Mean motion:    0.98686821 rev/day
Decay rate:    4.1999E-007 rev/day^2
Epoch rev:            4338
Checksum:              309

Satellite: NOAA-11
Catalog number: 19531
Epoch time:      103121.44722776
Element set:     592 
Inclination:       98.8917 deg
RA of node:       202.5549 deg
Eccentricity:    0.0011625
Arg of perigee:     3.5725 deg
Mean anomaly:     356.5527 deg
Mean motion:   14.14572043 rev/day
Decay rate:    1.8700E-006 rev/day^2
Epoch rev:           75296
Checksum:              313

Satellite: ASTRA 1A
Catalog number: 19688
Epoch time:      103121.63598280
Element set:     601 
Inclination:        1.5655 deg
RA of node:        93.1595 deg
Eccentricity:    0.0001892
Arg of perigee:   224.7886 deg
Mean anomaly:     135.4061 deg
Mean motion:    1.00272213 rev/day
Decay rate:    9.9999E-009 rev/day^2
Epoch rev:            3292
Checksum:              316

Satellite: UO-14
Catalog number: 20437
Epoch time:      103120.66639494
Element set:     223 
Inclination:       98.2619 deg
RA of node:       160.8417 deg
Eccentricity:    0.0011164
Arg of perigee:   355.9756 deg
Mean anomaly:       4.1341 deg
Mean motion:   14.31262386 rev/day
Decay rate:    1.6699E-006 rev/day^2
Epoch rev:           69266
Checksum:              320

Satellite: OSCAR 15 (UOSA
Catalog number: 20438
Epoch time:      103120.66782671
Element set:     805 
Inclination:       98.2391 deg
RA of node:       149.6654 deg
Eccentricity:    0.0010565
Arg of perigee:     7.3375 deg
Mean anomaly:     352.7959 deg
Mean motion:   14.30218239 rev/day
Decay rate:    1.6100E-006 rev/day^2
Epoch rev:           69232
Checksum:              315

Satellite: AO-16
Catalog number: 20439
Epoch time:      103120.59962534
Element set:     886 
Inclination:       98.3042 deg
RA of node:       172.8680 deg
Eccentricity:    0.0011192
Arg of perigee:     2.7889 deg
Mean anomaly:     357.3386 deg
Mean motion:   14.31501203 rev/day
Decay rate:    1.9599E-006 rev/day^2
Epoch rev:           69269
Checksum:              337

Satellite: OSCAR 17 (DOVE
Catalog number: 20440
Epoch time:      103120.71443234
Element set:     750 
Inclination:       98.3241 deg
RA of node:       177.0366 deg
Eccentricity:    0.0011754
Arg of perigee:     0.7397 deg
Mean anomaly:     359.3808 deg
Mean motion:   14.31782134 rev/day
Decay rate:    2.4599E-006 rev/day^2
Epoch rev:           69278
Checksum:              310

Satellite: WO-18
Catalog number: 20441
Epoch time:      103120.92583660
Element set:     84 
Inclination:       98.3184 deg
RA of node:       176.4027 deg
Eccentricity:    0.0011847
Arg of perigee:     2.2715 deg
Mean anomaly:     357.8521 deg
Mean motion:   14.31582075 rev/day
Decay rate:    1.6300E-006 rev/day^2
Epoch rev:           69279
Checksum:              300

Satellite: LO-19
Catalog number: 20442
Epoch time:      103120.68643707
Element set:     4 
Inclination:       98.3321 deg
RA of node:       179.3253 deg
Eccentricity:    0.0012406
Arg of perigee:     1.1132 deg
Mean anomaly:     359.0079 deg
Mean motion:   14.31746335 rev/day
Decay rate:    1.9199E-006 rev/day^2
Epoch rev:           69281
Checksum:              290

Satellite: FO-20
Catalog number: 20480
Epoch time:      103120.87895736
Element set:     485 
Inclination:       99.0576 deg
RA of node:        70.2630 deg
Eccentricity:    0.0539611
Arg of perigee:   202.3143 deg
Mean anomaly:     155.3650 deg
Mean motion:   12.83331947 rev/day
Decay rate:   -6.9999E-008 rev/day^2
Epoch rev:           61966
Checksum:              339

Satellite: HST
Catalog number: 20580
Epoch time:      103120.92007946
Element set:     410 
Inclination:       28.4686 deg
RA of node:       294.4327 deg
Eccentricity:    0.0003884
Arg of perigee:   299.6352 deg
Mean anomaly:     186.2635 deg
Mean motion:   14.98126133 rev/day
Decay rate:    4.7230E-005 rev/day^2
Epoch rev:           51334
Checksum:              302

Satellite: EUTELSAT 2-F1
Catalog number: 20777
Epoch time:      103118.85250119
Element set:     63 
Inclination:        3.6712 deg
RA of node:        83.8571 deg
Eccentricity:    0.0006428
Arg of perigee:   352.3646 deg
Mean anomaly:     163.0453 deg
Mean motion:    1.00271638 rev/day
Decay rate:   -9.6999E-007 rev/day^2
Epoch rev:            2679
Checksum:              313

Satellite: FENGYUN 1B
Catalog number: 20788
Epoch time:      103121.46281380
Element set:     940 
Inclination:       99.0360 deg
RA of node:       102.9960 deg
Eccentricity:    0.0016806
Arg of perigee:    31.2616 deg
Mean anomaly:     328.9546 deg
Mean motion:   14.02151432 rev/day
Decay rate:   -4.4000E-007 rev/day^2
Epoch rev:           64761
Checksum:              280

Satellite: EUTELSAT 2-F2
Catalog number: 21056
Epoch time:      103118.98731122
Element set:     638 
Inclination:        2.9013 deg
RA of node:        87.1812 deg
Eccentricity:    0.0005520
Arg of perigee:   324.3449 deg
Mean anomaly:     208.8877 deg
Mean motion:    1.00273021 rev/day
Decay rate:    1.2100E-006 rev/day^2
Epoch rev:            3257
Checksum:              258

Satellite: INFORMATOR 1
Catalog number: 21087
Epoch time:      103120.94804289
Element set:     629 
Inclination:       82.9386 deg
RA of node:       264.5264 deg
Eccentricity:    0.0037013
Arg of perigee:    51.9250 deg
Mean anomaly:     308.5235 deg
Mean motion:   13.74934271 rev/day
Decay rate:    9.5999E-007 rev/day^2
Epoch rev:           61469
Checksum:              336

